Palestine, IL

6:43 PM CST on December 10, 2016 (GMT -0600)
Robinson Municipal

Weather History for KRSV - March, 2013

Change the Weather History Date:

Saturday, March 30, 2013

  Actual Average (KLWV) Record (KLWV)
Temperature  
Mean Temperature 45 °F -  
Max Temperature 60 °F 58 °F 84 °F (2012)
Min Temperature 31 °F 37 °F 26 °F (1991)
Degree Days  
Heating Degree Days 20    
Moisture  
Dew Point 37 °F    
Average Humidity 76    
Maximum Humidity 98    
Minimum Humidity 37    
Precipitation  
Precipitation 0.03 in - - ()
Sea Level Pressure  
Sea Level Pressure 30.12 in    
Wind  
Wind Speed 3 mph (SSE)    
Max Wind Speed 16 mph    
Max Gust Speed 18 mph    
Visibility 6 miles    
Events Fog , Rain , Snow    
Averages and records for this station are not official NWS values.
T = Trace of Precipitation, MM = Missing Value Source: NWS Daily Summary

Daily Weather History Graph

Daily Weather History Graph

Search for Another Location

Airport or City:

Trip Planner

Search our weather history database for the weather conditions in past years. The results will help you decide how hot, cold, wet, or windy it might be!

Date:

Astronomy

Mar. 30, 2013 Rise Set
Actual Time 6:37 AM CDT 7:12 PM CDT
Civil Twilight 6:11 AM CDT 7:39 PM CDT
Nautical Twilight 5:39 AM CDT 8:11 PM CDT
Astronomical Twilight 5:07 AM CDT 8:43 PM CDT
Moon 11:16 PM CDT (3/30) 8:34 AM CDT (3/30)
Length of Visible Light 13h 28m
Length of Day
12h 34m
Waning Gibbous, 86% of the Moon is Illuminated
Mar 30
Waning Gibbous
Apr 2
Last Quarter
Apr 10
New
Apr 18
First Quarter
Apr 25
Full

Hourly Weather History & Observations

Time (CDT) Temp. Windchill Dew Point Humidity Pressure Visibility Wind Dir Wind Speed Gust Speed Precip Events Conditions
12:15 AM 36.7 °F - 34.7 °F 93% 30.23 in 5.0 mi Calm Calm - N/A   Clear
12:35 AM 36.1 °F - 34.7 °F 94% 30.24 in 5.0 mi Calm Calm - N/A   Clear
12:55 AM 34.7 °F - 33.1 °F 94% 30.24 in 3.0 mi Calm Calm - N/A   Clear
1:15 AM 35.6 °F - 34.3 °F 95% 30.24 in 1.8 mi Calm Calm - N/A   Mist
1:35 AM 34.3 °F - 32.9 °F 94% 30.24 in 5.0 mi Calm Calm - N/A   Clear
1:55 AM 34.7 °F - 33.3 °F 94% 30.24 in 4.0 mi Calm Calm - N/A   Clear
2:15 AM 33.4 °F 30.4 °F 32.2 °F 95% 30.24 in 3.0 mi South 3.5 mph - N/A   Clear
2:35 AM 32.5 °F - 31.8 °F 97% 30.23 in 5.0 mi Calm Calm - N/A   Clear
2:55 AM 33.1 °F - 32.0 °F 96% 30.23 in 5.0 mi Calm Calm - N/A   Clear
3:15 AM 32.0 °F - 30.7 °F 95% 30.22 in 4.0 mi Calm Calm - N/A   Clear
3:35 AM 32.2 °F - 31.3 °F 96% 30.21 in 5.0 mi Calm Calm - N/A   Clear
3:55 AM 32.9 °F - 32.0 °F 96% 30.22 in 3.0 mi Calm Calm - N/A   Clear
4:15 AM 32.0 °F - 30.9 °F 96% 30.23 in 4.0 mi Calm Calm - N/A   Clear
4:35 AM 32.0 °F - 30.9 °F 96% 30.23 in 4.0 mi Calm Calm - N/A   Clear
4:55 AM 32.0 °F - 31.5 °F 98% 30.23 in 3.0 mi Calm Calm - N/A   Clear
5:15 AM 31.8 °F - 30.6 °F 95% 30.23 in 4.0 mi Calm Calm - N/A   Clear
5:35 AM 32.5 °F - 32.0 °F 98% 30.23 in 2.5 mi Calm Calm - N/A   Clear
5:55 AM 31.6 °F - 30.6 °F 96% 30.23 in 3.0 mi Calm Calm - N/A   Clear
6:15 AM 31.1 °F 27.7 °F 30.2 °F 96% 30.23 in 0.5 mi East 3.5 mph - N/A Fog Light Freezing Fog
6:35 AM 32.0 °F 27.5 °F 31.5 °F 98% 30.21 in 0.2 mi East 4.6 mph - N/A Snow Light Snow
6:55 AM 33.4 °F 30.4 °F 32.5 °F 96% 30.23 in 0.2 mi ESE 3.5 mph - N/A Fog Fog
7:15 AM 33.8 °F - 32.9 °F 96% 30.24 in 0.2 mi Calm Calm - N/A Fog Fog
7:35 AM 34.2 °F - 33.3 °F 97% 30.23 in 0.2 mi Calm Calm - N/A Fog Fog
7:55 AM 35.8 °F 31.9 °F 34.9 °F 97% 30.22 in 0.2 mi ESE 4.6 mph - N/A Fog Fog
8:15 AM 37.2 °F 33.6 °F 36.3 °F 97% 30.22 in 0.2 mi SE 4.6 mph - N/A Fog Fog
8:35 AM 38.3 °F 33.9 °F 37.4 °F 97% 30.21 in 0.2 mi SSE 5.8 mph - N/A Fog Fog
8:55 AM 39.2 °F 35.9 °F 38.3 °F 97% 30.22 in 0.2 mi SE 4.6 mph - N/A Fog Fog
9:15 AM 40.1 °F 36.9 °F 39.2 °F 97% 30.21 in 0.2 mi SE 4.6 mph - N/A Fog Fog
9:35 AM 41.4 °F 38.4 °F 40.3 °F 96% 30.21 in 0.2 mi SE 4.6 mph - N/A Fog Fog
9:55 AM 43.0 °F 40.3 °F 41.7 °F 95% 30.20 in 0.2 mi ESE 4.6 mph - N/A Fog Fog
10:15 AM 44.1 °F 41.5 °F 43.0 °F 96% 30.19 in 0.5 mi ESE 4.6 mph - N/A Fog Fog
10:35 AM 44.8 °F 41.6 °F 43.7 °F 96% 30.18 in 1.0 mi ESE 5.8 mph - N/A   Overcast
10:55 AM 45.5 °F 42.5 °F 44.2 °F 95% 30.19 in 3.0 mi ESE 5.8 mph - N/A   Overcast
11:15 AM 46.6 °F - 45.5 °F 96% 30.18 in 4.0 mi SE 9.2 mph - N/A   Overcast
11:35 AM 48.0 °F - 45.9 °F 92% 30.17 in 5.0 mi ESE 8.1 mph - N/A   Mostly Cloudy
11:55 AM 50.2 °F - 45.0 °F 82% 30.16 in 10.0 mi SE 6.9 mph - N/A   Scattered Clouds
12:15 PM 53.8 °F - 42.4 °F 65% 30.15 in 10.0 mi SSE 4.6 mph - N/A   Clear
12:35 PM 55.6 °F - 42.1 °F 60% 30.14 in 10.0 mi SSE 8.1 mph - N/A   Clear
12:55 PM 55.9 °F - 42.6 °F 61% 30.13 in 10.0 mi SE 9.2 mph - N/A   Clear
1:15 PM 56.7 °F - 42.1 °F 58% 30.12 in 10.0 mi SSE 10.4 mph 16.1 mph N/A   Clear
1:35 PM 58.1 °F - 41.7 °F 54% 30.11 in 10.0 mi South 11.5 mph - N/A   Clear
1:55 PM 57.9 °F - 39.9 °F 51% 30.10 in 10.0 mi SSE 11.5 mph 16.1 mph N/A   Clear
2:15 PM 58.1 °F - 39.7 °F 50% 30.09 in 10.0 mi SSE 8.1 mph 18.4 mph N/A   Clear
2:35 PM 59.2 °F - 39.7 °F 49% 30.08 in 10.0 mi South 10.4 mph 17.3 mph N/A   Scattered Clouds
2:55 PM 59.5 °F - 37.4 °F 44% 30.06 in 10.0 mi SE 13.8 mph - N/A   Scattered Clouds
3:15 PM 59.2 °F - 36.9 °F 43% 30.05 in 10.0 mi SSE 16.1 mph - N/A   Scattered Clouds
3:35 PM 59.7 °F - 35.6 °F 41% 30.04 in 10.0 mi SSE 10.4 mph - N/A   Clear
3:55 PM 59.7 °F - 33.6 °F 37% 30.03 in 10.0 mi SE 15.0 mph - N/A   Clear
4:15 PM 59.2 °F - 34.5 °F 40% 30.02 in 10.0 mi SSE 11.5 mph - N/A   Clear
4:35 PM 59.0 °F - 33.3 °F 38% 30.02 in 10.0 mi South 10.4 mph 17.3 mph N/A   Clear
4:55 PM 58.6 °F - 33.3 °F 38% 30.01 in 10.0 mi SSE 9.2 mph 17.3 mph N/A   Clear
5:15 PM 58.5 °F - 32.5 °F 38% 30.00 in 10.0 mi SSE 8.1 mph - N/A   Clear
5:35 PM 58.1 °F - 33.3 °F 39% 30.00 in 10.0 mi SSE 6.9 mph - N/A   Clear
5:55 PM 57.2 °F - 34.2 °F 42% 30.00 in 10.0 mi South 8.1 mph - N/A   Scattered Clouds
6:15 PM 56.3 °F - 36.0 °F 46% 30.00 in 10.0 mi South 8.1 mph - N/A   Mostly Cloudy
6:35 PM 55.6 °F - 36.5 °F 49% 29.99 in 10.0 mi South 5.8 mph - N/A   Overcast
6:55 PM 54.7 °F - 37.4 °F 52% 29.98 in 10.0 mi SSE 5.8 mph - N/A   Overcast
7:15 PM 53.4 °F - 38.3 °F 57% 29.97 in 10.0 mi SSE 4.6 mph - N/A   Overcast
7:35 PM 53.2 °F - 38.5 °F 57% 29.96 in 10.0 mi SSE 6.9 mph - N/A   Overcast
7:55 PM 53.8 °F - 39.2 °F 58% 29.96 in 10.0 mi South 6.9 mph - N/A   Overcast
8:15 PM 53.1 °F - 40.3 °F 62% 29.96 in 10.0 mi South 5.8 mph - N/A   Overcast
8:35 PM 52.7 °F - 40.5 °F 63% 29.96 in 10.0 mi South 3.5 mph - N/A   Overcast
8:55 PM 52.9 °F - 41.5 °F 65% 29.96 in 10.0 mi South 5.8 mph - N/A   Overcast
9:15 PM 53.1 °F - 41.7 °F 65% 29.96 in 10.0 mi South 6.9 mph - N/A   Overcast
9:35 PM 53.1 °F - 42.3 °F 67% 29.96 in 10.0 mi South 8.1 mph - N/A Rain Light Rain
9:55 PM 52.9 °F - 42.8 °F 69% 29.96 in 10.0 mi South 9.2 mph - N/A   Drizzle
10:15 PM 51.8 °F - 43.9 °F 74% 29.96 in 10.0 mi SSW 6.9 mph - N/A Rain Light Rain
10:35 PM 50.5 °F - 45.0 °F 81% 29.96 in 10.0 mi SSW 4.6 mph - N/A Rain Rain
10:55 PM 50.4 °F - 45.3 °F 83% 29.96 in 10.0 mi SW 3.5 mph - N/A Rain Light Rain
11:15 PM 50.0 °F - 45.5 °F 85% 29.95 in 7.0 mi Calm Calm - 0.01 in Rain Light Rain
11:35 PM 49.5 °F - 45.7 °F 87% 29.94 in 10.0 mi Calm Calm - 0.03 in Rain Light Rain
11:55 PM 49.1 °F - 45.7 °F 88% 29.93 in 10.0 mi WSW 3.5 mph - 0.03 in   Light Drizzle